Pittsfield, MA

2:52 PM EDT on October 23, 2019 (GMT -0400)
Pittsfield Municipal

Weather History for KPSF - August, 2019

Change the Weather History Date:

Friday, August 23, 2019

  Actual Average Record
Temperature  
Mean Temperature 64 °F 66 °F  
Max Temperature 73 °F 76 °F 89 °F (1935)
Min Temperature 54 °F 55 °F 43 °F (1925)
Degree Days  
Heating Degree Days 1 2  
Month to date heating degree days 3 25  
Since 1 June heating degree days 70 157  
Since 1 July heating degree days 3 56  
Cooling Degree Days 0 2  
Month to date cooling degree days 109 80  
Year to date cooling degree days 385 257  
Since 1 June cooling degree days 379 244  
Growing Degree Days 14 (Base 50)    
Moisture  
Dew Point 53 °F    
Average Humidity 68    
Maximum Humidity 89    
Minimum Humidity 44    
Precipitation  
Precipitation 0.00 in 0.13 in 1.33 in (1933)
Month to date precipitation 1.62 3.11  
Year to date precipitation 27.76 28.80  
Sea Level Pressure  
Sea Level Pressure 29.95 in    
Wind  
Wind Speed 5 mph ()    
Max Wind Speed 13 mph    
Max Gust Speed 20 mph    
Visibility 10.0 miles    
Events      
T = Trace of Precipitation, MM = Missing Value Source: Averaged Metar Reports

Daily Weather History Graph

Daily Weather History Graph

Search for Another Location

Airport or City:

Astronomy

Aug. 23, 2019 Rise Set
Actual Time 6:08 AM EDT 7:42 PM EDT
Civil Twilight 5:38 AM EDT 8:11 PM EDT
Nautical Twilight 5:02 AM EDT 8:47 PM EDT
Astronomical Twilight 4:24 AM EDT 9:25 PM EDT
Moon 11:58 PM EDT 1:51 PM EDT
Length of Visible Light 14h 33m
Length of Day
13h 34m
Waning Gibbous, 50% of the Moon is Illuminated
Aug 23
Waning Gibbous
Aug 30
New
Sep 5
First Quarter
Sep 14
Full
Sep 21
Last Quarter

Hourly Weather History & Observations

Time (EDT) Temp. Dew Point Humidity Pressure Visibility Wind Dir Wind Speed Gust Speed Precip Events Conditions
12:54 AM 64.0 °F 53.1 °F 67% 29.88 in 10.0 mi NW 5.8 mph - N/A   Mostly Cloudy
1:54 AM 63.0 °F 52.0 °F 67% 29.88 in 10.0 mi NW 4.6 mph - N/A   Partly Cloudy
2:54 AM 62.1 °F 51.1 °F 67% 29.88 in 10.0 mi WNW 4.6 mph - N/A   Mostly Cloudy
3:54 AM 61.0 °F 52.0 °F 72% 29.90 in 10.0 mi WNW 5.8 mph - N/A   Clear
4:54 AM 59.0 °F 53.1 °F 81% 29.90 in 10.0 mi WNW 9.2 mph - N/A   Clear
5:54 AM 60.1 °F 53.1 °F 78% 29.91 in 10.0 mi WNW 9.2 mph - N/A   Clear
6:54 AM 59.0 °F 53.1 °F 81% 29.93 in 10.0 mi WNW 6.9 mph - N/A   Clear
7:54 AM 61.0 °F 54.0 °F 78% 29.94 in 10.0 mi WNW 6.9 mph - N/A   Partly Cloudy
8:54 AM 62.1 °F 55.0 °F 78% 29.95 in 10.0 mi WNW 5.8 mph - N/A   Clear
9:54 AM 64.9 °F 55.0 °F 70% 29.96 in 10.0 mi North 3.5 mph - N/A   Clear
10:54 AM 69.1 °F 55.0 °F 61% 29.96 in 10.0 mi North - - N/A   Clear
11:54 AM 70.0 °F 54.0 °F 57% 29.94 in 10.0 mi Variable 5.8 mph 16.1 mph N/A   Partly Cloudy
12:54 PM 70.0 °F 54.0 °F 57% 29.94 in 10.0 mi WNW 8.1 mph - N/A   Partly Cloudy
1:54 PM 72.0 °F 48.9 °F 44% 29.93 in 10.0 mi NW 10.4 mph 19.6 mph N/A   Partly Cloudy
2:54 PM 73.0 °F 51.1 °F 46% 29.95 in 10.0 mi North 10.4 mph - N/A   Mostly Cloudy
3:54 PM 71.1 °F 50.0 °F 47% 29.95 in 10.0 mi North 4.6 mph - N/A   Partly Cloudy
4:54 PM 70.0 °F 52.0 °F 53% 29.96 in 10.0 mi NNW 3.5 mph - N/A   Clear
5:54 PM 68.0 °F 55.0 °F 63% 29.97 in 10.0 mi WNW 4.6 mph - N/A   Clear
6:54 PM 66.9 °F 55.0 °F 66% 29.98 in 10.0 mi West 3.5 mph - N/A   Clear
7:54 PM 64.9 °F 55.0 °F 70% 29.99 in 10.0 mi Calm Calm - N/A   Mostly Cloudy
8:54 PM 61.0 °F 54.0 °F 78% 30.00 in 10.0 mi NW 4.6 mph - N/A   Clear
9:54 PM 57.9 °F 53.1 °F 84% 30.01 in 10.0 mi Calm Calm - N/A   Clear
10:54 PM 57.0 °F 53.1 °F 87% 30.03 in 10.0 mi Calm Calm - N/A   Clear
11:54 PM 55.0 °F 52.0 °F 89% 30.05 in 10.0 mi Calm Calm - N/A   Clear